COSMOS 2170

导读

COSMOS 2170是独联体(CIS)于1991年11月12日发射的卫星,归属苏联/俄罗斯传承延续的“宇宙”(COSMOS)卫星系列。该系列自1962年起持续发射,涵盖科研探索、空间技术试验与军事应用等多元任务,多数卫星承担军事侦察、电子情报搜集等职能,COSMOS 2170也延续了系列多用途任务属性,服务太空探测与航天技术验证工作。

Basic Information
目录编号:
21784
目录名称:
COSMOS 2170
国际标识:
1991-077F
轨道中心:
EARTH
卫星名称:
COSMOS 2170
卫星全名:
--
卫星状态:
在轨 (已飞行12725 天)
发射日期:
1991-11-12 UTC
国别 :
俄罗斯(独联体) (CIS)
星等 :
--
This satellite is enrolled in the Space Conjunction Data Service (SCDS) and the current flight risk assessment level is: No High Risk
Orbit Information
数据来源 国际轨道数据 AOE轨道数据
星历时间 2026-09-13T14:47:02+0800
23小时前
查看轨道信息
2026-09-10T07:00:00+0800
4天前
查看轨道信息
半长轴 7790.413km 7790.413km
偏心率 0.0003844 0.0003857
轨道倾角 82.609° 82.608°
近地点辐角 88.660° 92.235°
升交点赤经 213.045° 215.158°
平近点角 76.690° 90.537°
近地点 1409.281km 1409.271km
远地点 1415.271km 1415.281km
周期 114.051分钟 114.051分钟
每日圈数 12.625893 12.625893
Detailed Information
使用方式:
暂无
2D Orbit Map
3D Orbit Map
Orbit Altitude Analysis Chart
Orbit Inclination Analysis Chart
Orbit Comprehensive Analysis Chart
View Comprehensive Chart
Conjunction Data List
Event ID Objects TCA Miss Dist (km) Collision Risk Probability Collision Risk Index (CRI) Action
CDM_260915-065202-178402-268724
2026-09-15T
06:52:00+0000
1.037 km
极远距离
1.120361E-5 中风险 0.56
CDM_260915-232201-153902-178423
2026-09-15T
23:22:06+0000
1.528 km
极远距离
6.063582E-6 低风险 0.51
CDM_260916-160901-879002-178421
2026-09-16T
16:09:22+0000
1.497 km
极远距离
2.163583E-6 低风险 0.42
Miss Distance Evolution Trend with All Objects Subscribe to Flight Safety Assessment
Collision Probability Evolution Trend with All Objects Subscribe to Flight Safety Assessment